Temperature
16 16 16 16 16 16 16 16 16 16 16 16 17 17 17 17 16 16 16 16 16 17 17 17 17 17 17 17 17 17 17 17 17 17 17 17 17 17 18 18 18 18 18
16 16 16 16 16 16 16 16 16 16 16 16 16 16 16 16 16 16 16 16 16 16 16 17 17 17 17 17 17 17 17 17 17 17 17 17 17 17 17 18 18 18 18
16 16 15 15 15 15 15 16 16 16 16 16 16 16 16 16 16 16 16 16 16 16 16 16 16 17 17 17 17 17 17 17 17 17 17 17 17 17 17 18 18 18 18
15 15 15 15 15 15 15 15 16 15 16 16 16 16 16 16 16 16 16 16 16 16 16 16 16 16 16 16 17 17 17 17 17 17 17 17 17 17 17 17 17 17 17
15 15 15 15 15 15 15 15 15 15 15 16 16 16 16 16 16 16 16 16 16 16 16 16 16 16 16 16 16 16 16 16 16 16 16 17 17 17 17 17 17 17 17
15 15 15 15 15 15 15 15 15 15 15 15 16 16 16 16 16 16 16 16 16 16 16 16 16 16 16 16 16 16 16 16 16 16 16 16 17 17 17 17 17 17 17
15 15 15 15 15 15 15 15 15 15 15 15 16 16 16 16 16 16 16 16 16 16 16 16 16 16 16 16 16 16 16 16 16 16 16 16 17 17 17 17 17 17 17
15 15 15 15 15 15 15 15 15 15 15 15 15 16 16 16 16 16 16 16 16 15 15 15 16 16 16 16 16 16 16 16 16 16 16 16 16 17 17 17 17 17 17
15 15 15 15 15 14 15 15 15 15 15 15 15 15 15 15 15 16 16 16 15 15 15 15 15 15 15 15 15 15 16 16 16 16 16 16 16 16 16 16 17 17 17
15 15 15 15 15 15 15 14 14 15 15 15 15 15 15 15 15 15 15 15 15 15 15 15 15 15 15 15 15 15 15 15 15 16 16 16 16 16 16 16 16 16 16
15 15 15 15 15 15 15 14 14 14 14 15 15 15 15 15 15 15 15 15 15 15 15 15 15 15 15 15 15 15 15 15 15 15 16 16 16 16 16 16 16 16 16
15 15 15 15 15 15 15 14 14 14 14 14 15 15 15 15 15 15 15 15 15 15 15 15 15 15 15 15 15 15 15 15 15 15 15 15 16 16 16 16 16 16 16
15 15 15 15 15 15 15 14 14 14 14 14 14 14 15 14 15 15 15 15 15 15 15 15 15 15 14 14 15 15 15 15 15 15 15 15 15 15 15 16 16 16 16
15 15 15 15 15 15 14 14 14 14 14 14 14 14 14 14 14 14 14 14 14 15 15 14 14 14 14 14 14 14 14 15 15 15 15 15 15 15 15 15 16 15 15
15 15 15 15 15 15 14 14 14 14 14 14 14 14 14 14 14 14 14 14 14 14 14 14 14 14 14 14 14 14 14 14 14 15 15 15 15 15 15 15 15 15 15
15 15 15 15 15 14 14 14 14 14 14 14 14 14 14 14 14 14 14 14 14 14 14 14 14 14 14 14 14 14 14 14 14 14 14 14 15 15 15 15 15 15 15
15 15 14 14 14 14 14 14 14 14 14 14 14 14 14 14 14 14 14 14 14 14 14 14 14 14 13 14 14 14 14 14 14 14 14 14 14 14 14 14 14 14 15
15 14 14 14 14 14 14 14 14 14 14 14 14 14 14 14 14 13 13 13 13 13 13 13 13 13 13 13 13 13 13 13 13 14 14 14 14 14 14 14 14 14 14
14 14 14 14 14 14 14 14 14 13 13 13 13 13 13 13 13 13 13 13 13 13 13 13 13 13 13 13 13 13 13 13 13 13 13 13 14 14 14 14 14 14 14
14 14 14 14 14 13 13 13 13 13 13 13 13 13 13 13 13 13 13 13 13 13 13 13 13 13 13 13 13 13 13 13 13 13 13 13 13 13 13 13 13 14 14
14 14 14 13 13 13 13 13 13 13 13 13 13 13 13 13 13 13 12 12 12 12 12 12 12 12 12 12 12 12 12 12 12 12 12 12 13 13 13 13 13 13 13
14 13 13 13 13 13 13 13 13 13 13 12 12 12 12 12 12 12 12 12 12 12 12 12 11 11 11 11 12 12 12 12 12 12 12 12 12 12 12 13 13 13 13
13 13 13 13 13 13 13 13 13 12 12 12 12 12 12 12 12 12 12 12 12 12 11 11 11 11 11 11 11 11 11 11 11 11 11 12 12 12 12 12 12 12 12
13 13 13 13 13 12 12 12 12 12 12 12 11 11 11 11 11 11 11 11 11 11 11 11 11 11 11 11 11 11 11 11 11 11 11 11 11 11 12 12 12 12 12
13 12 12 12 12 12 12 12 12 12 12 11 11 11 11 11 11 11 11 11 11 11 11 11 10 10 10 10 10 10 10 10 10 11 11 10 11 11 11 11 11 11 12
12 12 12 12 12 12 12 11 11 11 11 11 11 11 10 10 10 10 10 10 10 10 10 10 10 10 10 10 10 10 10 9 9 9 10 10 10 10 10 10 11 11 11
Wind_Speed
2 3 3 4 4 5 3 3 3 4 4 6 6 5 4 4 5 6 6 7 6 6 5 5 5 5 5 5 5 5 5 5 6 6 5 5 4 4 3 3 3 5 6
4 3 3 3 3 4 4 3 3 3 2 3 4 5 5 4 4 4 5 6 6 5 5 4 4 4 5 5 5 6 6 5 5 6 5 4 4 3 3 2 3 4 6
7 4 3 3 4 6 6 5 4 4 3 3 3 3 3 4 3 4 3 5 6 5 4 4 4 4 4 5 5 5 5 5 5 5 5 4 3 2 2 2 3 4 6
9 6 4 3 6 7 4 3 3 3 4 3 3 3 2 3 4 3 3 4 5 5 4 5 4 4 4 4 4 5 4 4 4 3 3 3 3 2 2 3 4 5 6
9 7 3 4 8 5 4 5 5 4 3 3 2 1 2 2 3 4 3 4 5 5 5 5 5 4 4 4 4 4 4 3 3 3 2 2 2 2 2 3 4 5 6
10 7 4 6 6 4 5 4 4 4 3 3 4 3 1 1 2 3 3 4 5 5 4 4 5 4 4 5 4 4 3 3 2 2 2 2 1 1 1 2 4 5 7
9 6 4 4 4 4 5 5 4 4 4 3 2 3 2 2 3 2 2 3 3 4 4 4 5 5 4 5 4 4 3 2 1 1 1 1 1 1 0 2 3 5 7
8 7 4 3 4 3 5 5 4 4 4 4 3 2 2 3 4 2 2 2 3 3 3 5 5 5 5 6 5 4 3 2 1 1 1 1 0 0 0 1 3 5 6
6 7 5 4 3 3 3 4 4 4 4 4 4 3 2 1 2 2 3 2 3 3 2 3 5 6 6 6 6 4 3 2 2 0 1 1 1 1 1 1 3 5 6
5 5 4 4 3 3 3 3 4 3 3 3 3 2 1 1 1 2 3 3 3 3 3 3 4 5 6 6 6 5 4 4 4 2 1 1 1 2 1 1 2 4 5
3 3 3 3 4 3 4 4 4 4 3 3 3 3 3 2 2 1 2 3 3 3 3 2 3 4 4 5 4 4 4 4 4 3 2 1 0 0 1 3 4 4 4
2 3 4 4 3 3 3 3 3 3 3 4 3 3 3 3 3 2 2 2 2 2 2 2 2 2 3 4 4 5 4 4 4 4 3 3 2 2 3 3 3 5 5
3 4 4 3 3 3 3 3 3 3 3 3 3 3 3 3 2 2 2 2 2 2 1 1 1 3 3 4 4 3 3 2 2 3 3 3 3 3 4 2 3 3 4
2 3 3 4 5 5 5 4 3 4 4 4 4 3 2 2 3 3 2 2 3 2 2 2 1 2 2 3 2 1 1 1 1 2 3 3 3 3 4 3 2 3 4
2 3 3 3 4 4 4 4 3 4 3 3 4 4 3 2 3 3 2 2 1 2 2 2 2 2 2 2 1 1 1 1 2 3 3 3 4 4 4 4 4 4 4
3 3 3 4 4 3 3 3 3 4 4 3 3 4 4 2 3 3 2 2 1 0 2 2 2 1 2 2 2 2 2 2 3 4 4 4 5 5 5 5 5 6 6
2 2 3 3 3 4 3 4 4 4 4 4 3 3 3 3 3 3 2 2 2 1 1 3 2 2 2 2 1 3 2 2 3 5 5 5 6 6 6 7 7 7 7
3 3 3 3 4 4 4 4 4 4 4 4 4 4 4 4 4 4 3 3 2 2 1 3 3 3 2 2 2 2 3 3 4 5 5 5 6 6 7 7 7 7 7
2 3 2 3 3 4 4 4 4 4 4 4 4 4 4 4 4 4 4 4 3 4 3 3 4 3 2 2 2 3 3 3 5 6 6 7 7 8 8 8 8 8 8
2 2 2 3 3 4 5 5 5 5 5 4 5 5 5 5 4 5 5 5 5 4 3 3 4 4 3 3 2 2 3 3 3 4 5 6 8 9 9 9 9 9 9
4 3 3 3 3 3 5 6 6 6 5 5 4 4 4 4 6 5 4 5 5 4 3 3 3 4 4 4 3 3 3 3 4 3 2 3 3 4 7 9 10 10 10
3 3 3 3 4 4 6 8 7 5 5 4 4 4 3 3 4 5 6 6 5 4 4 3 3 4 5 4 4 4 4 4 4 3 2 4 3 4 4 6 10 12 12
2 3 3 3 3 4 5 7 8 5 5 4 3 3 4 6 6 5 6 6 6 7 7 4 4 5 5 5 4 5 5 6 6 5 3 5 4 5 6 9 11 12 13
1 1 2 2 2 3 4 6 8 5 4 3 4 4 4 5 7 8 6 5 5 6 6 5 4 6 6 5 5 6 6 6 6 5 4 5 5 5 6 7 11 13 13
1 0 0 0 1 2 3 5 6 5 4 3 3 4 5 4 8 11 7 6 6 6 9 11 11 11 12 12 9 4 4 4 6 6 4 4 5 5 5 5 9 12 13
1 1 1 0 1 3 3 4 5 4 4 4 2 2 5 5 9 10 6 5 6 7 8 9 9 9 8 9 10 4 3 4 5 5 4 3 4 4 5 4 4 5 7
Wind_Direction
25 26 45 24 15 23 8 347 357 9 10 5 7 22 30 39 68 90 107 111 108 95 81 73 73 74 73 72 70 66 65 84 112 116 112 111 120 125 132 130 159 168 171
44 24 38 18 12 16 2 4 16 9 11 18 9 15 15 26 55 97 120 123 118 106 94 86 89 87 79 79 75 73 75 81 101 108 109 109 109 118 142 145 162 158 165
42 31 21 12 10 19 17 7 16 6 7 25 16 10 29 19 16 70 103 134 130 123 113 107 107 104 90 87 90 83 81 89 94 101 104 104 104 122 151 167 175 164 166
45 32 10 8 19 18 10 359 20 16 8 10 7 5 28 29 14 38 54 96 118 120 124 127 122 123 108 98 100 96 90 96 96 94 95 100 100 113 145 159 170 171 174
41 39 14 16 25 17 4 9 24 15 6 355 350 24 37 47 5 30 32 56 82 94 105 130 134 134 125 110 103 105 99 105 104 104 94 85 90 93 133 162 171 177 172
33 34 26 25 26 17 8 13 19 12 3 351 3 18 43 85 46 38 28 38 56 73 85 108 130 127 128 114 103 100 101 102 110 107 107 92 87 84 131 164 172 175 173
22 26 27 22 23 24 13 14 15 11 357 358 17 1 8 58 62 69 43 35 38 56 66 76 89 102 120 124 97 93 88 90 106 149 142 102 67 63 196 184 178 179 178
22 21 30 24 23 20 17 12 21 10 355 8 21 28 16 6 3 54 68 66 45 41 47 62 72 83 93 112 105 88 81 70 46 256 195 178 178 68 338 205 191 182 182
33 22 21 18 15 33 24 4 23 23 2 355 26 49 50 14 328 357 32 56 57 37 25 53 64 66 74 88 95 79 66 61 28 330 208 199 196 198 232 232 208 193 186
55 24 13 14 22 33 24 8 37 11 13 357 356 15 42 79 67 348 350 17 35 48 42 45 47 57 65 82 86 73 62 51 34 38 70 189 196 191 190 211 200 185 185
53 29 10 27 30 27 26 20 26 24 22 14 6 359 3 359 0 63 348 346 8 23 37 49 61 59 61 79 82 70 62 44 32 36 34 28 333 345 276 244 221 202 194
32 33 22 33 43 35 29 8 21 34 32 15 11 19 19 16 8 19 356 349 359 335 15 45 55 64 63 83 70 63 51 39 25 24 18 7 358 319 295 257 223 213 208
39 25 25 26 32 25 32 12 21 19 32 17 24 16 13 19 14 15 21 349 333 314 7 34 53 69 55 84 80 64 37 35 23 12 1 355 351 318 305 264 224 212 214
63 33 25 42 35 26 26 24 22 13 18 16 21 17 7 12 20 25 34 20 351 350 2 357 357 51 39 81 78 78 356 343 326 344 346 339 335 326 317 305 263 241 237
65 48 27 50 50 36 25 24 23 9 14 22 6 5 10 10 16 14 18 37 52 353 330 334 1 339 1 57 31 314 286 284 270 286 300 310 307 306 305 297 288 271 259
55 52 37 38 47 32 25 30 22 7 11 13 8 11 7 2 6 3 358 3 19 199 287 299 308 303 355 359 332 320 327 272 273 279 284 293 303 298 288 281 278 272 263
60 50 47 44 44 29 22 28 13 8 4 356 356 12 5 9 6 350 356 2 358 6 314 309 322 324 342 323 326 299 294 255 274 279 275 273 283 291 289 279 274 270 267
47 49 43 38 36 32 22 14 1 7 1 357 355 10 13 14 6 354 354 349 347 340 336 315 312 324 325 311 288 292 302 292 281 279 263 267 273 275 280 278 271 265 262
48 61 47 43 37 21 14 5 8 359 354 357 359 8 10 22 6 353 355 356 351 349 345 331 314 311 305 310 319 316 312 303 297 289 272 264 268 274 271 272 266 257 255
39 54 50 47 44 28 18 10 4 356 354 360 7 10 16 29 16 3 358 350 348 342 338 336 323 322 316 308 322 306 309 297 291 295 292 276 263 262 266 265 263 258 253
22 25 42 39 41 36 26 19 358 352 350 355 7 10 23 34 27 17 6 350 347 337 333 335 324 328 324 330 321 307 309 301 290 276 290 289 275 263 263 262 259 259 254
14 9 28 52 46 35 34 23 5 346 338 345 354 356 1 15 10 5 353 345 340 332 323 319 315 314 309 311 320 322 316 317 305 297 302 294 286 282 272 252 247 250 251
29 7 15 50 69 53 28 10 357 338 321 329 341 352 355 17 18 356 341 333 335 329 323 303 299 300 300 305 312 310 303 297 285 277 289 286 284 280 279 269 258 250 246
79 43 24 33 73 49 20 11 351 329 319 338 357 14 23 23 9 358 343 343 336 330 316 309 296 291 294 294 285 281 280 288 288 283 269 275 276 274 280 277 266 256 247
47 339 139 55 94 65 39 20 355 325 325 344 10 24 23 21 357 354 347 336 328 321 323 322 309 301 300 301 298 300 297 297 297 290 279 274 280 283 277 274 274 262 252
356 326 353 26 86 91 74 32 3 336 335 340 357 21 23 5 347 347 342 329 320 315 321 319 313 308 302 299 302 286 278 291 297 295 291 291 293 301 293 277 267 269 266
Height
1547 1547 1546 1546 1545 1545 1544 1544 1543 1543 1543 1542 1542 1542 1542 1542 1542 1542 1541 1541 1541 1541 1541 1541 1541 1541 1542 1542 1542 1542 1541 1541 1542 1544 1546 1548 1549 1550 1551 1551 1551 1551 1552
1548 1547 1547 1546 1546 1545 1545 1544 1544 1543 1543 1543 1542 1542 1542 1542 1542 1542 1542 1542 1542 1542 1542 1542 1542 1542 1542 1543 1543 1543 1542 1542 1543 1545 1546 1548 1549 1550 1551 1551 1551 1551 1552
1549 1548 1547 1547 1547 1546 1545 1545 1544 1544 1544 1543 1543 1543 1543 1543 1543 1543 1543 1543 1542 1542 1542 1542 1542 1543 1543 1543 1543 1543 1544 1543 1544 1545 1546 1548 1549 1550 1550 1551 1551 1552 1553
1549 1548 1548 1548 1547 1546 1546 1545 1545 1544 1544 1544 1544 1544 1544 1543 1543 1544 1544 1544 1543 1543 1543 1543 1543 1543 1543 1544 1544 1544 1544 1545 1545 1546 1547 1548 1548 1549 1550 1550 1551 1552 1553
1550 1549 1549 1548 1548 1547 1546 1546 1545 1545 1545 1545 1544 1544 1544 1544 1544 1544 1544 1544 1544 1544 1544 1544 1544 1544 1544 1544 1544 1545 1545 1545 1546 1546 1547 1548 1548 1549 1549 1550 1550 1551 1553
1551 1550 1550 1549 1548 1548 1547 1547 1546 1546 1546 1545 1545 1545 1545 1545 1545 1545 1545 1545 1545 1545 1544 1544 1544 1544 1544 1544 1544 1545 1545 1545 1546 1546 1547 1547 1548 1548 1549 1549 1549 1550 1552
1552 1551 1551 1550 1549 1548 1548 1547 1547 1547 1547 1546 1546 1546 1546 1546 1546 1546 1546 1546 1545 1545 1545 1545 1545 1545 1544 1545 1545 1545 1545 1545 1545 1545 1546 1546 1547 1547 1547 1547 1548 1549 1551
1553 1552 1551 1551 1550 1550 1549 1549 1548 1548 1548 1547 1547 1546 1547 1548 1547 1547 1547 1546 1546 1546 1546 1546 1546 1545 1545 1545 1545 1545 1545 1544 1544 1544 1545 1545 1546 1546 1546 1546 1546 1547 1549
1554 1553 1552 1552 1551 1551 1550 1550 1549 1549 1549 1549 1548 1548 1548 1548 1548 1549 1548 1547 1547 1547 1547 1546 1546 1546 1545 1545 1545 1544 1544 1544 1543 1542 1543 1543 1544 1544 1544 1544 1545 1546 1548
1555 1554 1553 1553 1553 1552 1551 1551 1551 1550 1550 1550 1550 1550 1550 1549 1549 1549 1549 1548 1548 1548 1547 1547 1546 1546 1545 1545 1545 1544 1544 1543 1542 1541 1541 1542 1542 1542 1542 1542 1543 1544 1546
1556 1555 1555 1554 1554 1553 1552 1552 1552 1551 1551 1551 1550 1550 1550 1550 1550 1550 1549 1549 1549 1548 1548 1547 1547 1546 1545 1545 1544 1544 1543 1542 1541 1540 1540 1541 1541 1540 1540 1539 1539 1542 1544
1557 1557 1556 1555 1555 1554 1553 1553 1553 1552 1552 1552 1551 1551 1551 1550 1550 1550 1550 1549 1549 1549 1548 1548 1547 1546 1545 1545 1544 1543 1542 1542 1541 1540 1540 1540 1540 1539 1538 1535 1536 1538 1542
1558 1558 1557 1556 1556 1555 1554 1554 1554 1553 1553 1553 1552 1552 1551 1551 1551 1551 1550 1549 1549 1549 1548 1548 1547 1546 1545 1544 1544 1543 1542 1542 1541 1540 1540 1539 1539 1538 1536 1534 1534 1537 1540
1559 1558 1558 1557 1556 1556 1555 1555 1554 1554 1554 1553 1553 1553 1552 1552 1551 1551 1550 1550 1548 1548 1548 1548 1547 1546 1545 1544 1543 1543 1542 1541 1540 1540 1539 1539 1538 1538 1536 1535 1536 1537 1539
1559 1559 1558 1558 1557 1556 1556 1555 1555 1555 1554 1554 1553 1553 1552 1552 1551 1551 1550 1550 1550 1548 1548 1547 1547 1546 1545 1544 1543 1542 1541 1540 1539 1539 1538 1538 1537 1537 1536 1535 1535 1536 1537
1560 1559 1559 1558 1558 1557 1557 1556 1555 1555 1555 1554 1554 1553 1553 1552 1551 1551 1550 1550 1549 1549 1547 1547 1546 1545 1544 1543 1542 1541 1540 1539 1538 1538 1537 1536 1536 1535 1535 1535 1534 1535 1536
1560 1560 1559 1559 1558 1557 1557 1556 1556 1556 1555 1555 1554 1553 1553 1552 1551 1551 1550 1549 1549 1548 1547 1546 1545 1544 1543 1542 1541 1540 1539 1538 1537 1536 1535 1535 1534 1533 1533 1533 1533 1533 1533
1560 1560 1560 1559 1558 1558 1557 1557 1556 1556 1555 1555 1554 1553 1552 1551 1551 1550 1549 1548 1548 1547 1546 1544 1543 1543 1542 1541 1539 1538 1537 1536 1535 1535 1534 1533 1532 1531 1531 1530 1530 1530 1530
1560 1560 1559 1559 1558 1558 1557 1557 1556 1555 1555 1554 1554 1553 1552 1551 1550 1549 1548 1547 1546 1546 1545 1543 1542 1541 1540 1539 1538 1536 1535 1534 1533 1533 1532 1531 1530 1529 1528 1527 1527 1527 1527
1559 1559 1559 1558 1558 1557 1557 1556 1555 1555 1554 1554 1553 1552 1551 1550 1549 1548 1547 1546 1545 1544 1543 1541 1540 1539 1538 1537 1536 1534 1533 1532 1531 1530 1529 1528 1527 1526 1525 1524 1524 1524 1524
1559 1559 1558 1558 1557 1556 1556 1555 1554 1554 1553 1552 1552 1551 1550 1549 1548 1547 1546 1544 1543 1542 1541 1539 1538 1537 1536 1534 1533 1532 1530 1529 1528 1527 1526 1525 1524 1522 1522 1521 1521 1520 1520
1558 1558 1557 1557 1556 1556 1555 1554 1553 1552 1552 1551 1550 1549 1548 1547 1546 1545 1544 1543 1542 1541 1539 1538 1536 1535 1533 1532 1531 1529 1528 1526 1524 1524 1522 1521 1520 1518 1518 1517 1516 1516 1515
1556 1556 1556 1556 1555 1554 1554 1553 1552 1551 1551 1550 1549 1548 1547 1545 1544 1543 1542 1541 1539 1538 1537 1536 1534 1532 1531 1529 1528 1526 1525 1523 1521 1520 1519 1516 1516 1514 1514 1513 1512 1511 1511
1555 1555 1555 1554 1554 1553 1552 1552 1551 1550 1549 1548 1547 1546 1545 1543 1542 1541 1539 1538 1536 1535 1534 1533 1531 1529 1528 1527 1525 1523 1521 1519 1517 1517 1516 1513 1511 1510 1509 1508 1507 1507 1506
1554 1554 1553 1553 1552 1552 1551 1550 1550 1548 1547 1546 1545 1544 1543 1541 1540 1538 1536 1534 1532 1531 1530 1529 1527 1526 1524 1523 1521 1519 1517 1515 1512 1511 1511 1510 1507 1505 1504 1503 1502 1501 1501
1552 1552 1552 1552 1551 1550 1550 1549 1548 1547 1545 1544 1543 1542 1540 1539 1537 1535 1533 1531 1529 1527 1525 1524 1523 1521 1520 1518 1517 1516 1514 1511 1509 1507 1506 1505 1503 1501 1498 1497 1497 1496 1495